Date,TemperatureHighF,TemperatureAvgF,TemperatureLowF,DewpointHighF,DewpointAvgF,DewpointLowF,HumidityHigh,HumidityAvg,HumidityLow,PressureMaxIn,PressureMinIn,WindSpeedMaxMPH,WindSpeedAvgMPH,GustSpeedMaxMPH,PrecipitationSumIn
2013-1-1,29.9,20.5,9.0,25.0,12.7,2.0,85,72,60,29.92,29.68,26,12,40,0.00
2013-1-2,17.2,8.7,-2.6,10.0,0.8,-10.0,79,71,55,30.13,29.90,30,15,42,0.00
2013-1-3,15.7,7.9,-2.6,10.0,-2.8,-10.0,77,62,44,30.16,30.02,20,10,29,0.00
2013-1-4,31.1,26.0,14.6,24.0,20.3,9.0,91,79,66,30.00,29.80,24,11,40,0.00
2013-1-5,29.8,26.0,20.4,26.0,17.5,13.0,88,71,56,30.28,29.80,26,10,38,0.00
2013-1-6,32.0,26.3,19.3,28.0,20.2,-99.9,93,80,70,30.23,29.97,14,-7,24,0.00
2013-1-7,32.9,26.5,21.5,30.0,18.7,10.0,92,73,52,30.41,29.98,12,5,25,0.00
2013-1-8,39.1,32.1,22.4,23.0,20.9,15.0,78,64,50,30.39,30.26,26,11,37,0.00
2013-1-9,38.9,33.5,28.3,31.0,25.9,22.0,84,74,63,30.41,29.96,25,5,42,0.01
2013-1-10,38.7,34.5,29.9,32.0,25.5,23.0,89,70,59,30.55,29.98,29,12,47,0.00
2013-1-11,35.5,31.5,27.1,33.0,25.0,22.0,97,78,60,30.54,30.26,7,1,11,0.08
2013-1-12,38.8,35.4,32.3,39.0,34.9,32.0,99,98,96,30.25,30.15,10,2,16,0.11
2013-1-13,45.7,38.7,33.5,46.0,38.5,33.0,99,99,98,30.18,29.98,13,4,22,0.01
2013-1-14,51.9,42.6,31.9,47.0,37.3,24.0,99,82,61,30.25,29.87,39,12,41,0.00
2013-1-15,33.6,29.7,27.6,25.0,21.3,19.0,80,71,59,30.34,30.23,14,5,20,0.00
2013-1-16,29.1,27.1,25.1,28.0,24.2,19.0,97,89,67,30.28,29.82,13,1,18,0.00
2013-1-17,34.3,26.0,14.6,28.0,19.3,1.0,96,76,54,30.13,29.82,23,10,34,0.03
2013-1-18,17.1,10.8,1.8,5.0,-5.3,-14.0,61,49,37,30.43,30.09,31,10,41,0.00
2013-1-19,39.8,28.9,15.5,25.0,16.6,4.0,74,60,53,30.37,29.88,19,8,29,0.03
2013-1-20,43.7,34.0,19.1,33.0,20.8,0.0,90,60,41,29.88,29.50,42,15,57,0.03
2013-1-21,22.3,16.3,11.1,15.0,1.9,-99.9,92,59,43,30.05,29.84,25,-14,39,0.00
2013-1-22,16.9,11.3,2.8,13.0,4.9,-5.0,92,77,45,30.07,29.81,16,6,29,0.00
2013-1-23,2.6,-2.9,-8.1,-5.0,-13.4,-18.0,83,62,45,30.16,30.05,20,10,29,0.00
2013-1-24,7.6,-1.2,-9.8,-8.0,-16.1,-99.9,66,52,34,30.26,30.09,32,6,46,0.00
2013-1-25,13.9,5.6,-1.9,-5.0,-8.8,-99.9,71,55,38,30.32,30.11,30,3,41,0.00
2013-1-26,15.2,9.4,5.9,1.0,-3.4,-9.0,73,57,40,30.23,30.06,27,10,33,0.00
2013-1-27,18.9,12.1,5.4,1.0,-2.7,-9.0,73,53,35,30.50,30.23,32,12,39,0.00
2013-1-28,21.6,16.1,11.8,15.0,2.2,-12.0,93,60,26,30.48,30.11,18,4,21,0.00
2013-1-29,31.2,24.8,17.0,31.0,22.6,15.0,97,91,80,30.25,30.11,5,1,8,0.14
2013-1-30,55.2,42.6,31.0,54.0,42.1,30.0,99,98,96,30.19,29.45,22,6,37,0.43
2013-1-31,57.1,41.2,23.7,56.0,33.4,9.0,99,75,49,29.47,28.85,42,18,60,0.73
2013-2-1,23.1,17.9,10.8,18.0,7.7,2.0,82,65,50,30.08,29.48,34,16,42,0.00
2013-2-2,18.7,14.0,6.5,13.0,5.4,0.0,85,69,53,30.24,30.08,20,7,31,0.00
2013-2-3,25.2,19.2,13.6,16.0,13.7,12.0,93,80,60,30.09,29.75,5,1,9,0.00
2013-2-4,22.0,17.7,11.9,17.0,5.8,-3.0,91,62,35,29.91,29.72,36,14,49,0.00
2013-2-5,22.9,14.6,5.3,14.0,2.0,-4.0,78,58,42,30.06,29.91,20,6,30,0.00
2013-2-6,32.0,21.0,11.8,22.0,12.5,-10.0,93,72,34,30.31,29.98,33,8,40,0.00
2013-2-7,18.0,12.2,5.7,5.0,-6.1,-10.0,61,45,30,30.58,30.30,24,8,32,0.00
2013-2-8,13.6,11.3,8.2,12.0,6.8,-4.0,100,83,47,30.56,29.89,19,4,27,0.00
2013-2-9,16.7,12.4,8.6,15.0,9.5,1.0,93,88,70,30.24,29.82,23,9,36,0.00
2013-2-10,30.5,20.1,8.8,5.0,-1.1,-5.0,69,42,25,30.45,30.25,23,9,33,0.00
2013-2-11,34.4,27.8,22.2,34.0,18.7,-1.0,98,74,34,30.39,29.65,23,3,31,0.03
2013-2-12,37.6,34.1,31.1,34.0,28.4,25.0,98,80,67,29.85,29.61,27,13,38,0.27
2013-2-13,35.7,30.6,27.2,25.0,21.2,18.0,79,69,57,29.86,29.77,17,6,24,0.04
2013-2-14,35.9,30.1,26.1,22.0,19.5,18.0,73,65,54,30.01,29.74,11,2,20,0.02
2013-2-15,44.9,34.8,27.1,28.0,23.4,18.0,83,64,49,30.00,29.93,16,6,22,0.00
2013-2-16,33.8,27.9,22.1,25.0,18.4,7.0,94,69,53,29.98,29.79,14,7,20,0.00
2013-2-17,21.9,14.4,9.2,12.0,5.3,0.0,90,68,52,29.78,29.38,45,16,56,0.00
2013-2-18,21.8,14.3,4.6,2.0,-3.3,-9.0,75,49,25,30.14,29.63,45,18,51,0.00
2013-2-19,38.7,29.0,16.6,36.0,9.6,-16.0,97,50,14,30.19,29.60,18,4,26,0.14
2013-2-20,33.8,26.5,20.2,33.0,21.3,12.0,98,81,64,29.73,29.52,29,12,40,0.01
2013-2-21,21.1,17.9,12.4,16.0,11.0,5.0,88,74,64,30.27,29.73,32,13,51,0.01
2013-2-22,37.0,27.6,20.5,22.0,18.6,16.0,87,70,48,30.47,30.29,13,3,18,0.00
2013-2-23,32.2,28.9,25.8,30.0,26.6,22.0,97,91,81,30.36,30.01,10,2,13,0.01
2013-2-24,30.0,27.3,25.3,29.0,26.6,24.0,97,97,96,30.01,29.80,7,1,11,0.00
2013-2-25,36.6,30.8,25.3,34.0,29.2,24.0,97,93,88,30.27,29.95,5,1,9,0.35
2013-2-26,36.6,32.1,28.0,32.0,29.9,26.0,97,91,82,30.38,30.24,7,1,10,0.10
2013-2-27,32.1,29.5,27.2,32.0,28.7,27.0,98,97,91,30.23,29.70,22,6,28,0.00
2013-2-28,39.6,32.6,27.1,38.0,31.7,26.0,98,96,88,29.69,29.59,9,2,19,0.39
2013-3-1,36.9,31.9,29.3,31.0,28.6,26.0,98,88,73,29.71,29.57,8,2,12,0.02
2013-3-2,42.0,33.4,26.1,29.0,26.4,25.0,96,76,58,29.70,29.65,7,2,15,0.00
2013-3-3,37.1,29.0,25.2,31.0,26.2,22.0,96,90,74,29.67,29.60,17,6,25,0.03
2013-3-4,29.6,24.9,21.7,25.0,20.9,19.0,93,85,76,29.81,29.61,26,14,37,0.00
2013-3-5,38.6,31.1,22.7,31.0,25.2,19.0,92,79,65,30.13,29.82,20,5,22,0.00
2013-3-6,32.2,29.4,26.3,30.0,27.4,24.0,98,92,83,30.24,30.13,16,6,25,0.01
2013-3-7,30.1,26.9,25.1,27.0,23.8,22.0,95,88,80,30.22,30.12,18,8,26,0.00
2013-3-8,44.1,34.2,24.9,25.0,21.1,15.0,95,62,40,30.26,30.07,16,3,23,0.04
2013-3-9,54.7,40.9,31.3,24.0,15.8,10.0,73,40,18,30.38,30.22,6,1,9,0.00
2013-3-10,49.1,35.5,28.0,30.0,25.9,23.0,91,70,43,30.42,30.31,9,2,18,0.00
2013-3-11,47.1,38.0,28.2,36.0,29.5,26.0,96,74,46,30.33,30.16,13,4,18,0.00
2013-3-12,48.7,43.7,38.9,49.0,43.0,36.0,99,97,87,30.16,29.73,13,4,24,0.74
2013-3-13,48.0,37.9,31.7,48.0,31.7,25.0,98,79,54,29.79,29.72,22,8,31,0.00
2013-3-14,31.7,25.7,13.2,26.0,17.5,2.0,92,71,56,29.82,29.68,30,10,41,0.01
2013-3-15,33.7,21.0,10.8,28.0,11.5,1.0,95,68,39,29.85,29.66,29,11,38,0.00
2013-3-16,27.7,23.5,18.1,24.0,13.4,8.0,94,67,47,29.93,29.73,17,6,23,0.00
2013-3-17,25.0,19.6,13.9,11.0,4.3,-4.0,79,53,34,30.35,29.93,31,0,45,0.00
2013-3-18,33.7,22.0,11.8,19.0,1.7,-5.0,73,43,28,30.49,30.30,9,3,17,0.01
2013-3-19,28.1,24.9,20.6,27.0,23.6,19.0,97,95,76,30.29,29.76,10,2,22,0.00
2013-3-20,31.6,24.8,19.8,23.0,20.1,17.0,95,83,62,29.79,29.70,27,13,38,0.02
2013-3-21,36.9,27.8,20.5,19.0,15.1,10.0,79,61,38,29.80,29.65,29,7,35,0.16
2013-3-22,32.8,27.3,21.3,23.0,15.9,13.0,84,63,47,29.73,29.64,18,7,28,0.00
2013-3-23,33.5,27.8,23.3,22.0,19.3,16.0,87,71,50,29.79,29.62,41,18,46,0.00
2013-3-24,38.5,32.2,27.3,24.0,22.3,21.0,82,68,53,29.85,29.78,27,10,30,0.00
2013-3-25,38.4,32.2,27.6,29.0,24.8,21.0,82,74,63,29.82,29.61,10,3,17,0.00
2013-3-26,44.2,36.2,30.2,28.0,22.3,19.0,90,59,38,29.80,29.62,13,4,21,0.00
2013-3-27,43.1,35.9,31.2,31.0,25.3,22.0,92,66,48,29.93,29.78,21,10,29,0.00
2013-3-28,42.3,37.0,31.5,33.0,31.8,30.0,97,82,66,30.06,29.92,11,2,16,0.02
2013-3-29,45.8,39.7,35.5,34.0,31.7,29.0,88,73,55,30.07,30.02,22,10,25,0.00
2013-3-30,48.7,40.5,34.7,30.0,22.6,13.0,81,53,27,30.13,30.05,15,5,22,0.00
2013-3-31,54.1,44.1,35.2,37.0,19.8,12.0,91,40,28,30.13,29.82,8,2,20,0.03
2013-4-1,52.0,38.0,28.3,41.0,33.1,13.0,98,84,46,29.82,29.52,32,7,42,0.39
2013-4-2,29.7,25.9,21.8,16.0,9.8,6.0,63,51,40,29.89,29.75,37,18,47,0.00
2013-4-3,36.7,28.2,21.6,18.0,9.6,4.0,66,48,26,30.16,29.88,37,21,49,0.00
2013-4-4,49.1,36.8,26.0,20.0,12.1,7.0,69,39,21,30.29,30.00,25,14,33,0.00
2013-4-5,49.4,39.4,29.7,25.0,22.5,19.0,71,53,32,30.00,29.71,25,14,33,0.00
2013-4-6,35.4,28.6,21.2,19.0,5.7,0.0,68,40,24,30.38,29.89,31,12,37,0.00
2013-4-7,51.8,40.6,29.5,37.0,18.5,1.0,77,43,28,30.37,29.96,29,9,44,0.00
2013-4-8,55.1,46.8,40.9,38.0,33.1,26.0,84,61,37,30.13,29.94,30,10,45,0.00
2013-4-9,51.7,43.9,39.3,45.0,39.2,35.0,98,84,64,30.11,29.92,19,3,30,0.34
2013-4-10,51.9,45.5,41.3,46.0,42.5,39.0,98,89,72,30.01,29.91,15,2,15,0.70
2013-4-11,42.9,40.2,36.7,42.0,29.9,18.0,98,70,42,30.21,29.89,10,2,16,0.10
2013-4-12,36.5,29.8,26.4,29.0,24.6,17.0,97,83,48,30.24,29.92,13,3,17,0.00
2013-4-13,47.2,36.3,28.2,36.0,32.0,28.0,98,86,61,29.97,29.84,12,5,27,0.62
2013-4-14,46.7,38.6,35.3,35.0,31.6,29.0,84,76,56,30.24,29.94,23,10,30,0.01
2013-4-15,52.5,41.1,33.1,34.0,30.5,27.0,85,68,42,30.42,30.25,13,4,20,0.00
2013-4-16,59.4,48.3,37.9,51.0,39.6,29.0,93,73,53,30.42,30.00,33,12,44,0.05
2013-4-17,54.5,47.8,40.5,51.0,32.1,25.0,95,57,35,30.36,30.02,29,12,35,0.01
2013-4-18,53.9,46.2,38.8,36.0,27.3,19.0,64,48,38,30.47,30.16,15,5,20,0.00
2013-4-19,69.3,58.4,46.1,60.0,53.1,35.0,96,83,63,30.16,29.59,28,13,48,0.16
2013-4-20,57.9,43.9,34.2,56.0,32.7,19.0,96,68,41,30.21,29.61,41,20,48,0.21
2013-4-21,46.3,36.5,28.8,19.0,16.8,14.0,65,46,29,30.73,30.21,23,9,35,0.00
2013-4-22,51.1,39.7,32.0,31.0,20.9,14.0,93,50,26,30.81,30.65,9,2,22,0.00
2013-4-23,39.9,34.8,28.6,38.0,32.4,28.0,96,91,85,30.65,30.24,8,3,14,0.00
2013-4-24,72.6,55.6,40.1,52.0,44.0,36.0,92,69,28,30.22,29.75,19,3,29,0.00
2013-4-25,58.4,50.8,42.2,50.0,33.5,22.0,88,54,34,30.31,29.74,27,9,36,0.00
2013-4-26,56.3,47.7,39.5,35.0,28.4,23.0,60,48,35,30.45,30.31,11,1,13,0.00
2013-4-27,64.8,51.4,42.0,36.0,32.4,27.0,74,51,26,30.45,30.30,6,1,13,0.00
2013-4-28,67.4,54.3,42.4,40.0,35.1,33.0,72,51,30,30.35,30.23,8,1,18,0.00
2013-4-29,68.4,56.0,45.3,44.0,36.4,29.0,66,49,34,30.27,30.18,9,2,14,0.00
2013-4-30,72.8,59.1,50.9,38.0,32.1,24.0,50,37,25,30.38,30.25,7,2,15,0.00
2013-5-1,75.4,59.4,46.0,36.0,29.3,20.0,48,33,20,30.48,30.37,7,1,15,0.00
2013-5-2,76.3,57.6,42.7,45.0,34.5,26.0,68,43,22,30.52,30.38,10,2,18,0.00
2013-5-3,61.0,49.9,38.2,45.0,38.8,33.0,90,67,49,30.55,30.41,9,3,14,0.00
2013-5-4,65.0,52.0,41.6,44.0,38.5,29.0,92,64,26,30.41,30.28,12,4,18,0.00
2013-5-5,67.6,50.8,39.1,39.0,34.3,29.0,79,55,29,30.35,30.25,13,3,18,0.00
2013-5-6,71.4,55.2,41.2,48.0,39.3,32.0,86,59,25,30.29,30.15,16,4,20,0.00
2013-5-7,76.7,63.5,52.1,56.0,47.4,34.0,81,60,22,30.18,30.09,18,5,23,0.00
2013-5-8,70.3,62.0,56.5,57.0,54.8,52.0,98,78,56,30.22,30.08,15,4,22,0.16
2013-5-9,58.8,55.3,52.8,59.0,54.6,53.0,100,97,93,30.07,29.92,9,2,11,0.20
2013-5-10,71.6,61.5,53.9,61.0,55.2,54.0,99,81,56,29.98,29.90,14,4,19,0.01
2013-5-11,63.8,59.8,56.4,60.0,56.5,53.0,96,89,70,29.91,29.67,25,12,39,0.43
2013-5-12,63.2,54.5,42.9,56.0,45.4,26.0,98,74,42,29.77,29.58,25,10,39,0.00
2013-5-13,47.4,41.8,37.2,31.0,27.8,26.0,72,58,47,30.07,29.77,33,14,40,0.00
2013-5-14,52.8,44.3,36.5,33.0,27.5,23.0,85,55,33,30.09,30.00,23,8,26,0.00
2013-5-15,61.2,48.9,42.4,49.0,33.3,23.0,97,59,34,30.07,29.69,16,6,24,0.13
2013-5-16,71.7,58.3,48.0,49.0,41.8,34.0,98,61,25,29.84,29.64,36,13,44,0.01
2013-5-17,60.4,51.9,43.5,41.0,37.9,34.0,78,60,38,30.25,29.84,22,10,32,0.00
2013-5-18,65.7,55.3,44.3,46.0,40.2,34.0,96,59,32,30.33,30.25,9,3,16,0.00
2013-5-19,56.6,49.6,43.9,51.0,47.1,43.0,98,91,80,30.37,30.24,10,4,16,0.14
2013-5-20,66.9,58.7,49.5,62.0,55.7,49.0,98,90,80,30.23,29.99,19,7,23,0.13
2013-5-21,61.9,54.4,47.4,57.0,52.5,47.0,98,94,81,30.12,29.93,10,3,20,0.43
2013-5-22,57.9,51.4,47.7,56.0,50.9,47.0,99,98,92,30.03,29.92,7,1,15,0.57
2013-5-23,68.5,58.4,49.0,65.0,57.3,49.0,99,96,83,29.96,29.79,22,3,28,0.32
2013-5-24,65.2,57.5,45.4,63.0,55.7,45.0,99,94,81,29.87,29.66,15,5,23,0.50
2013-5-25,46.1,42.8,33.2,46.0,42.5,33.0,99,98,94,29.86,29.74,14,2,20,0.99
2013-5-26,47.4,39.9,33.3,39.0,33.7,-99.9,99,84,71,30.09,29.71,30,-8,39,0.01
2013-5-27,63.3,52.2,40.2,40.0,35.5,29.0,85,57,29,30.21,30.08,23,6,27,0.00
2013-5-28,71.3,59.2,48.2,47.0,38.8,33.0,66,48,33,30.27,30.18,6,1,14,0.00
2013-5-29,55.6,53.3,49.8,55.0,51.2,42.0,99,93,64,30.19,30.03,7,0,11,0.32
2013-5-30,81.1,70.8,54.7,64.0,61.4,54.0,99,75,48,30.10,30.03,20,6,32,0.00
2013-5-31,88.1,78.9,70.2,66.0,62.3,57.0,75,58,38,30.09,29.93,19,6,26,0.00
2013-6-1,89.0,80.4,73.4,68.0,64.0,60.0,77,59,38,29.94,29.82,20,8,29,0.00
2013-6-2,87.6,74.5,64.8,69.0,66.2,62.0,96,77,48,29.82,29.65,20,8,32,0.31
2013-6-3,74.9,66.3,57.5,64.0,58.2,49.0,93,76,42,29.82,29.74,20,7,23,0.00
2013-6-4,60.8,54.7,47.9,48.0,42.8,39.0,80,65,51,30.11,29.81,18,8,29,0.00
2013-6-5,70.6,58.8,49.7,44.0,40.0,35.0,78,53,30,30.21,30.11,9,2,18,0.00
2013-6-6,72.3,61.5,54.7,54.0,44.7,37.0,81,55,40,30.22,30.12,8,1,13,0.00
2013-6-7,55.0,50.2,46.9,51.0,48.7,45.0,98,94,81,30.13,29.93,10,2,18,0.98
2013-6-8,66.8,57.4,49.3,60.0,54.7,49.0,99,91,77,30.02,29.74,19,5,25,0.91
2013-6-9,71.6,63.6,54.1,57.0,53.7,51.0,96,72,50,30.19,30.03,13,5,21,0.00
2013-6-10,69.1,61.5,54.3,58.0,54.7,51.0,97,79,64,30.21,30.05,6,1,9,0.16
2013-6-11,56.5,53.1,51.0,56.0,52.6,51.0,99,98,94,30.04,29.61,12,2,19,1.29
2013-6-12,63.1,56.6,52.3,56.0,53.1,52.0,99,88,71,29.85,29.59,17,4,20,0.01
2013-6-13,68.8,58.9,52.9,55.0,52.1,49.0,97,79,53,29.84,29.74,7,1,12,0.12
2013-6-14,74.2,61.6,52.6,56.0,51.8,47.0,99,74,38,29.80,29.70,7,1,13,0.00
2013-6-15,71.9,63.8,55.3,53.0,44.6,40.0,74,52,35,29.94,29.80,15,4,21,0.00
2013-6-16,70.5,63.7,59.3,59.0,51.1,43.0,92,65,47,29.94,29.72,14,3,25,0.01
2013-6-17,76.2,64.8,57.9,60.0,57.4,55.0,94,78,49,29.91,29.77,17,7,26,0.02
2013-6-18,61.9,57.3,53.4,57.0,53.5,51.0,94,87,77,30.00,29.89,7,1,15,0.06
2013-6-19,70.6,61.2,51.8,54.0,46.9,42.0,93,62,40,30.18,29.96,8,1,12,0.00
2013-6-20,74.2,64.0,53.5,52.0,46.1,42.0,70,54,39,30.28,30.18,10,2,14,0.00
2013-6-21,80.4,69.1,60.2,55.0,51.7,43.0,76,55,40,30.26,30.21,12,2,16,0.00
2013-6-22,77.0,70.5,65.9,67.0,59.9,51.0,89,70,54,30.23,30.11,5,1,13,0.20
2013-6-23,82.5,70.4,64.2,75.0,66.9,62.0,97,88,72,30.15,29.98,18,3,25,1.34
2013-6-24,85.6,74.0,65.4,69.0,66.4,64.0,94,78,53,30.00,29.89,25,13,39,0.54
2013-6-25,84.4,72.6,65.3,70.0,65.6,62.0,98,80,54,29.93,29.74,27,9,38,0.06
2013-6-26,73.6,66.9,61.6,68.0,64.8,61.0,99,93,82,29.88,29.73,14,4,23,0.28
2013-6-27,66.5,61.3,57.5,66.0,61.0,57.0,99,99,96,29.87,29.81,7,2,14,0.01
2013-6-28,62.2,57.2,53.3,62.0,57.1,53.0,100,99,99,29.81,29.55,16,7,23,1.08
2013-6-29,78.1,69.0,60.7,71.0,65.5,61.0,100,89,69,29.70,29.55,22,7,29,0.20
2013-6-30,80.0,70.7,64.0,69.0,66.2,62.0,96,86,68,29.94,29.70,22,7,49,0.94
2013-7-1,72.7,68.9,66.3,70.0,67.8,65.0,99,96,84,30.09,29.94,10,3,14,0.22
2013-7-2,70.4,61.9,56.9,69.0,61.7,57.0,100,98,92,30.24,30.07,17,5,21,0.39
2013-7-3,81.7,69.7,57.5,73.0,66.2,58.0,100,89,70,30.23,30.13,16,6,22,0.06
2013-7-4,86.9,77.7,70.9,74.0,70.9,69.0,93,80,61,30.20,30.07,17,8,29,0.01
2013-7-5,87.3,77.3,71.8,73.0,66.2,-99.9,91,73,54,30.14,30.02,18,-12,27,0.00
2013-7-6,81.6,76.1,72.1,70.0,68.0,63.0,87,76,64,30.06,29.97,20,12,26,0.00
2013-7-7,81.9,74.4,69.8,70.0,65.5,62.0,92,74,59,30.02,29.93,17,7,25,0.21
2013-7-8,74.9,69.5,62.2,71.0,67.7,61.0,98,93,84,30.09,29.92,8,3,14,0.70
2013-7-9,69.0,64.9,62.0,67.0,63.9,62.0,99,96,89,30.14,30.07,7,2,11,0.01
2013-7-10,70.3,65.9,62.5,70.0,65.5,62.0,100,98,92,30.10,29.80,12,4,19,0.34
2013-7-11,76.2,71.3,67.3,70.0,67.1,59.0,99,87,69,29.98,29.77,15,6,21,0.01
2013-7-12,75.1,67.2,62.4,63.0,58.0,55.0,83,73,56,30.24,29.98,10,4,13,0.00
2013-7-13,76.9,68.6,62.0,67.0,62.8,59.0,97,82,64,30.34,30.24,6,2,12,0.00
2013-7-14,81.5,74.2,66.9,72.0,68.7,66.0,98,83,68,30.32,30.22,12,6,18,0.00
2013-7-15,86.0,77.5,70.7,70.0,67.2,63.0,88,72,54,30.23,30.11,15,5,20,0.00
2013-7-16,86.2,78.1,71.3,71.0,66.5,63.0,79,68,53,30.18,30.14,11,4,19,0.00
2013-7-17,88.7,77.7,70.5,71.0,64.2,-99.9,94,67,54,30.19,29.97,12,-17,26,0.04
2013-7-18,87.0,75.8,70.9,72.0,69.0,67.0,94,80,56,30.03,29.95,14,3,19,0.10
2013-7-19,89.0,80.5,70.8,74.0,70.8,67.0,93,73,55,29.95,29.69,20,9,31,0.00
2013-7-20,81.8,75.3,69.8,70.0,66.1,63.0,94,74,63,29.80,29.64,25,9,37,0.02
2013-7-21,78.5,70.5,65.0,66.0,62.2,57.0,93,76,59,30.01,29.80,6,1,9,0.00
2013-7-22,73.0,65.4,62.0,68.0,64.0,59.0,98,95,85,30.06,29.94,5,0,11,0.38
2013-7-23,69.6,63.7,59.6,69.0,63.1,59.0,99,97,92,29.93,29.58,8,1,13,2.47
2013-7-24,73.9,66.9,52.7,68.0,61.3,48.0,95,83,66,29.98,29.60,17,5,21,0.00
2013-7-25,70.3,60.2,50.1,59.0,53.3,47.0,92,78,61,30.14,30.00,8,0,11,0.00
2013-7-26,66.7,62.5,58.9,65.0,60.3,58.0,96,92,85,30.12,29.98,8,1,13,0.33
2013-7-27,78.1,68.4,60.3,62.0,59.1,57.0,93,74,50,30.06,29.99,19,5,21,0.00
2013-7-28,78.7,68.3,62.8,69.0,64.3,61.0,98,87,71,30.03,29.99,8,2,14,0.03
2013-7-29,80.6,64.4,62.7,69.0,59.4,-99.9,99,90,62,30.07,29.99,9,-24,19,0.27
2013-7-30,72.7,66.0,59.2,59.0,55.5,51.0,91,70,49,30.12,30.05,16,7,25,0.00
2013-7-31,76.4,67.0,58.8,61.0,55.9,52.0,85,69,46,30.16,30.06,11,5,16,0.00
2013-8-1,75.4,66.0,60.8,64.0,57.5,-99.9,96,77,58,30.06,29.87,16,-11,29,0.27
2013-8-2,74.5,66.6,59.8,64.0,58.9,53.0,99,79,49,29.87,29.80,20,8,29,0.06
2013-8-3,72.6,65.0,58.0,59.0,55.4,53.0,94,72,55,29.86,29.78,24,10,30,0.01
2013-8-4,68.9,61.9,55.7,56.0,53.7,51.0,86,75,61,29.90,29.81,16,10,23,0.00
2013-8-5,66.6,58.2,52.8,52.0,46.1,38.0,90,66,37,30.08,29.90,22,10,30,0.00
2013-8-6,72.2,63.6,57.1,55.0,49.4,45.0,67,60,46,30.18,30.08,11,3,14,0.00
2013-8-7,73.8,64.8,56.8,61.0,55.1,46.0,87,72,51,30.20,30.12,11,4,19,0.00
2013-8-8,78.2,67.2,58.2,68.0,63.2,55.0,96,87,69,30.12,30.01,20,8,22,0.04
2013-8-9,71.0,68.5,66.5,70.0,67.4,66.0,99,96,90,30.02,29.75,24,9,31,0.74
2013-8-10,71.7,67.0,58.8,67.0,56.0,46.0,96,70,41,30.03,29.79,22,10,30,0.00
2013-8-11,71.6,63.3,55.2,54.0,50.7,48.0,78,64,50,30.09,30.02,13,7,18,0.00
2013-8-12,74.5,66.8,59.3,58.0,54.7,52.0,79,66,51,30.04,29.93,16,6,22,0.00
2013-8-13,67.4,65.0,61.4,64.0,60.5,56.0,97,86,66,29.93,29.70,20,5,26,0.71
2013-8-14,66.5,60.3,54.4,63.0,54.1,49.0,97,81,61,29.95,29.67,26,12,36,0.01
2013-8-15,67.8,59.7,51.5,52.0,49.6,47.0,85,70,52,30.12,29.95,15,10,22,0.00
2013-8-16,73.3,64.1,56.6,56.0,51.8,48.0,76,65,47,30.21,30.11,12,7,16,0.00
2013-8-17,73.7,66.5,58.8,57.0,54.0,51.0,84,65,49,30.30,30.21,9,3,17,0.00
2013-8-18,72.1,66.7,61.9,62.0,56.6,51.0,85,70,60,30.30,30.08,11,4,19,0.00
2013-8-19,76.3,68.3,60.5,61.0,58.0,55.0,85,70,55,30.08,29.96,17,8,25,0.00
2013-8-20,79.1,71.8,65.3,63.0,59.6,58.0,77,66,51,30.11,29.99,12,6,19,0.00
2013-8-21,81.4,74.1,68.0,65.0,61.7,59.0,76,66,49,30.15,30.01,17,6,25,0.00
2013-8-22,81.4,73.9,67.5,65.0,62.4,60.0,85,68,50,30.02,29.81,21,10,27,0.00
2013-8-23,72.5,65.5,58.1,63.0,54.4,48.0,89,69,45,30.17,29.82,17,7,27,0.00
2013-8-24,72.6,63.6,53.3,53.0,47.6,43.0,75,57,40,30.35,30.17,9,3,12,0.00
2013-8-25,74.8,67.2,58.1,56.0,51.7,48.0,72,58,45,30.38,30.16,20,6,28,0.00
2013-8-26,71.7,66.2,58.1,67.0,61.5,55.0,94,85,61,30.16,29.89,25,10,29,0.11
2013-8-27,79.1,71.4,64.7,66.0,64.4,61.0,97,80,57,29.92,29.87,9,2,12,0.00
2013-8-28,77.6,69.1,61.8,70.0,65.2,60.0,98,87,72,30.03,29.88,8,2,15,1.19
2013-8-29,62.5,60.1,58.2,62.0,59.9,58.0,99,99,97,30.11,29.99,9,2,14,0.02
2013-8-30,77.9,67.8,57.6,68.0,62.5,57.0,99,84,66,30.06,29.81,19,7,25,0.00
2013-8-31,74.7,70.8,65.8,71.0,66.9,64.0,96,88,78,29.84,29.77,18,7,24,0.03
2013-9-1,78.5,71.5,67.0,70.0,67.6,66.0,98,88,71,29.90,29.79,19,6,25,0.00
2013-9-2,68.1,66.6,64.9,68.0,66.3,65.0,100,99,98,29.89,29.75,8,3,22,0.78
2013-9-3,70.6,65.3,60.5,65.0,62.6,57.0,100,91,80,29.80,29.72,16,6,28,0.10
2013-9-4,71.9,64.2,56.8,57.0,55.5,52.0,93,75,52,29.92,29.80,21,11,26,0.00
2013-9-5,61.4,56.8,48.8,57.0,46.4,37.0,97,71,41,30.17,29.88,15,6,24,0.01
2013-9-6,62.8,54.0,45.8,46.0,40.4,37.0,76,61,48,30.27,30.09,17,7,22,0.00
2013-9-7,70.0,60.3,52.9,52.0,46.6,42.0,77,61,46,30.09,29.84,21,11,34,0.00
2013-9-8,60.2,55.9,48.1,55.0,45.2,39.0,90,68,55,30.10,29.76,23,12,35,0.00
2013-9-9,63.9,54.0,45.2,48.0,42.2,37.0,78,65,50,30.24,30.10,16,8,25,0.00
2013-9-10,67.9,61.0,54.4,66.0,58.2,48.0,98,90,73,30.14,30.05,13,5,22,0.12
2013-9-11,87.2,75.7,65.2,75.0,70.0,63.0,99,84,59,30.08,29.93,21,10,48,0.42
2013-9-12,75.9,68.3,63.7,71.0,65.1,61.0,98,90,60,29.92,29.68,18,3,32,0.71
2013-9-13,67.1,60.3,51.7,65.0,59.1,50.0,99,96,87,29.78,29.62,16,3,16,0.27
2013-9-14,59.0,53.3,49.6,53.0,49.5,46.0,96,88,75,30.07,29.78,15,8,17,0.00
2013-9-15,63.8,55.0,47.3,51.0,46.5,42.0,89,74,54,30.17,30.04,13,6,17,0.00
2013-9-16,56.6,51.4,41.8,52.0,45.6,33.0,96,81,63,30.29,30.02,16,7,18,0.06
2013-9-17,59.1,49.0,38.4,44.0,38.3,33.0,87,68,52,30.46,30.29,8,2,14,0.00
2013-9-18,67.0,57.9,49.5,49.0,43.3,39.0,72,59,41,30.35,30.15,13,5,17,0.00
2013-9-19,72.6,63.7,56.6,56.0,49.6,46.0,70,61,41,30.15,30.05,12,2,15,0.00
2013-9-20,73.7,64.7,55.9,58.0,52.6,47.0,80,66,52,30.11,30.01,9,1,14,0.00
2013-9-21,68.3,61.0,52.4,61.0,55.2,41.0,95,81,53,30.02,29.72,17,5,18,0.00
2013-9-22,64.2,57.4,45.2,63.0,52.7,40.0,98,85,62,29.83,29.60,17,11,18,0.54
2013-9-23,50.0,44.9,41.7,41.0,38.6,37.0,86,79,67,30.02,29.82,17,11,18,0.00
2013-9-24,55.0,47.0,41.1,43.0,40.0,37.0,85,77,61,30.01,29.88,17,10,18,0.01
2013-9-25,56.9,51.5,47.3,50.0,45.5,43.0,86,80,71,30.03,29.91,12,2,17,0.00
2013-9-26,62.8,52.7,44.2,50.0,45.4,41.0,93,77,59,30.18,30.03,4,0,10,0.00
2013-9-27,64.6,56.1,50.2,52.0,49.4,48.0,92,79,62,30.30,30.18,0,0,7,0.00
2013-9-28,67.6,59.0,52.5,54.0,49.9,47.0,88,73,53,30.38,30.29,7,0,12,0.00
2013-9-29,65.0,56.6,48.9,55.0,49.0,42.0,87,76,57,30.29,30.14,12,1,16,0.00
2013-9-30,64.8,56.3,47.2,53.0,48.8,45.0,94,76,60,30.15,30.00,4,0,6,0.00
2013-10-1,71.3,61.0,51.9,56.0,51.7,48.0,92,73,48,30.00,29.88,9,1,15,0.00
2013-10-2,71.7,64.5,57.9,59.0,55.4,51.0,83,73,60,29.95,29.83,17,10,18,0.00
2013-10-3,69.3,62.8,57.7,53.0,48.1,45.0,72,60,47,30.09,29.95,15,3,17,0.00
2013-10-4,65.5,59.9,54.8,55.0,49.1,45.0,78,68,58,30.11,30.05,0,0,5,0.00
2013-10-5,58.9,56.1,52.8,53.0,47.1,42.0,86,72,64,30.16,30.08,3,0,10,0.00
2013-10-6,56.7,47.8,44.4,53.0,44.0,38.0,98,87,69,30.28,30.16,8,0,13,0.24
2013-10-7,67.0,55.0,46.8,66.0,54.2,46.0,99,97,83,30.21,29.78,33,5,36,0.64
2013-10-8,57.2,51.2,44.8,49.0,41.0,34.0,87,69,50,30.41,29.90,17,7,26,0.00
2013-10-9,63.3,49.6,39.7,45.0,40.4,34.0,96,72,45,30.53,30.40,3,0,10,0.00
2013-10-10,60.6,52.5,45.5,51.0,45.4,40.0,89,77,66,30.40,30.22,4,0,5,0.00
2013-10-11,65.7,57.2,50.7,49.0,45.4,42.0,79,65,49,30.22,30.16,5,0,10,0.00
2013-10-12,56.5,51.3,44.9,51.0,48.8,42.0,98,91,74,30.44,30.21,7,1,14,0.00
2013-10-13,54.5,48.4,43.0,49.0,45.3,42.0,96,89,76,30.50,30.43,3,0,7,0.01
2013-10-14,63.0,53.3,44.3,51.0,46.1,40.0,95,78,60,30.43,30.27,8,1,13,0.00
2013-10-15,61.9,56.8,54.1,53.0,51.7,45.0,91,83,70,30.30,30.20,8,1,11,0.00
2013-10-16,57.8,53.4,50.4,52.0,48.2,43.0,96,83,68,30.20,29.92,6,0,9,0.00
2013-10-17,67.7,58.1,51.2,54.0,49.8,46.0,96,76,48,29.93,29.72,11,2,20,0.00
2013-10-18,58.5,53.8,49.5,53.0,47.4,36.0,98,80,59,29.88,29.61,27,10,32,0.15
2013-10-19,60.5,52.5,46.6,45.0,41.2,36.0,76,66,54,29.97,29.75,15,5,22,0.00
2013-10-20,54.6,49.6,44.6,47.0,38.2,31.0,89,67,42,30.01,29.67,22,11,33,0.02
2013-10-21,59.2,50.6,42.9,42.0,38.8,35.0,80,65,52,30.12,29.98,17,6,22,0.00
2013-10-22,52.2,48.3,41.0,48.0,42.7,32.0,93,81,62,29.97,29.73,17,8,24,0.10
2013-10-23,48.7,42.6,38.8,35.0,31.5,30.0,73,65,51,29.79,29.62,15,2,17,0.00
2013-10-24,43.7,38.6,33.4,33.0,30.0,27.0,90,72,53,29.89,29.66,32,12,33,0.00
2013-10-25,40.3,35.8,33.1,32.0,27.8,24.0,92,74,54,30.15,29.89,17,8,18,0.00
2013-10-26,45.8,39.9,32.4,33.0,28.9,26.0,84,66,50,30.16,29.88,22,6,25,0.00
2013-10-27,47.6,42.8,37.8,35.0,31.0,27.0,71,64,47,30.05,29.80,20,8,27,0.00
2013-10-28,49.0,39.9,32.6,37.0,29.4,22.0,78,66,55,30.37,30.05,24,9,32,0.00
2013-10-29,42.2,34.3,27.4,26.0,19.6,11.0,91,58,30,30.48,30.37,8,1,13,0.00
2013-10-30,43.9,37.6,31.7,34.0,27.5,16.0,94,68,47,30.39,30.23,14,5,17,0.00
2013-10-31,57.7,46.1,37.9,56.0,43.4,34.0,98,90,79,30.27,29.78,34,6,38,0.27
2013-11-1,63.5,58.6,53.1,60.0,53.4,42.0,95,84,58,29.76,29.38,34,16,50,0.44
2013-11-2,57.5,50.1,38.8,44.0,41.7,38.0,96,74,55,29.77,29.61,15,4,18,0.15
2013-11-3,37.9,33.0,27.1,37.0,23.4,15.0,95,69,44,30.46,29.78,14,1,17,0.00
2013-11-4,37.0,30.2,23.6,18.0,14.9,12.0,74,54,37,30.76,30.47,2,0,12,0.00
2013-11-5,43.3,35.9,28.4,32.0,25.5,13.0,90,67,46,30.76,30.54,8,0,12,0.00
2013-11-6,54.6,46.2,38.9,44.0,39.3,32.0,86,77,63,30.53,29.99,28,5,35,0.00
2013-11-7,54.1,47.2,35.5,52.0,43.4,28.0,96,86,73,29.98,29.68,30,12,36,0.13
2013-11-8,37.3,33.0,29.2,29.0,23.9,22.0,82,69,60,30.08,29.80,21,10,35,0.00
2013-11-9,37.8,34.5,31.2,27.0,22.3,21.0,68,62,55,30.20,30.05,23,6,28,0.00
2013-11-10,41.1,36.6,32.4,38.0,34.3,27.0,98,91,69,30.05,29.75,18,4,29,0.13
2013-11-11,43.3,37.6,32.3,34.0,28.4,25.0,96,71,52,30.09,29.86,23,9,42,0.00
2013-11-12,40.6,26.6,21.8,33.0,18.7,13.0,92,72,64,30.18,29.87,17,12,31,0.00
2013-11-13,28.2,23.3,17.2,17.0,12.4,10.0,81,64,48,30.31,30.13,18,9,25,0.00
2013-11-14,42.4,35.7,26.0,30.0,23.4,17.0,70,61,49,30.13,30.06,21,11,32,0.00
2013-11-15,51.2,45.5,40.6,22.0,17.3,14.0,48,33,23,30.21,30.11,22,9,34,0.00
2013-11-16,56.0,47.9,41.2,30.0,24.3,17.0,59,40,31,30.34,30.20,6,0,12,0.00
2013-11-17,48.1,41.5,39.1,48.0,38.0,29.0,99,88,58,30.34,29.90,11,1,14,0.19
2013-11-18,57.9,52.0,42.6,58.0,44.2,30.0,99,77,50,29.89,29.51,24,9,42,0.37
2013-11-19,42.5,31.2,27.0,30.0,19.9,15.0,85,63,55,30.30,29.59,30,13,43,0.00
2013-11-20,34.4,28.2,23.6,18.0,13.2,10.0,70,54,39,30.67,30.30,20,4,28,0.00
2013-11-21,41.8,34.5,27.1,26.0,12.2,5.0,63,41,24,30.68,30.37,15,3,18,0.00
2013-11-22,41.5,36.9,35.0,41.0,33.6,26.0,98,88,64,30.37,29.81,13,3,26,0.06
2013-11-23,42.4,31.6,22.5,41.0,24.6,15.0,97,77,46,29.91,29.74,30,11,36,0.01
2013-11-24,22.3,14.9,10.9,16.0,4.3,-1.0,78,63,52,30.18,29.76,34,14,52,0.00
2013-11-25,27.0,18.0,10.1,13.0,1.9,-5.0,60,50,32,30.39,30.18,24,8,38,0.00
2013-11-26,30.6,27.3,24.1,28.0,22.7,13.0,97,84,55,30.35,30.15,22,4,28,0.00
2013-11-27,53.6,38.6,28.7,53.0,38.0,27.0,99,97,89,30.14,29.27,9,0,18,1.97
2013-11-28,31.1,23.1,15.3,27.0,13.3,5.0,89,67,47,30.43,29.39,24,10,41,0.00
2013-11-29,23.0,17.2,12.8,9.0,7.2,5.0,78,66,49,30.79,30.43,17,5,20,0.00
2013-11-30,27.4,19.7,11.3,18.0,12.2,7.0,92,74,52,30.85,30.47,8,1,12,0.00
2013-12-1,32.0,29.3,24.4,31.0,27.3,18.0,98,92,78,30.47,30.10,0,0,11,0.00
2013-12-2,37.3,33.0,30.1,37.0,32.5,30.0,98,98,96,30.10,29.96,14,1,16,0.00
2013-12-3,40.8,33.7,29.8,37.0,30.8,28.0,99,89,72,29.97,29.90,10,2,17,0.01
2013-12-4,36.9,32.7,28.5,29.0,25.7,22.0,88,75,67,30.22,29.95,16,6,24,0.00
2013-12-5,43.4,33.7,30.2,43.0,31.1,25.0,98,90,70,30.26,29.93,8,1,11,0.10
2013-12-6,49.1,39.7,28.8,49.0,36.7,27.0,99,89,70,30.14,29.90,18,6,25,0.06
2013-12-7,29.6,26.4,21.2,27.0,18.2,11.0,96,72,55,30.46,30.09,17,4,28,0.01
2013-12-8,22.9,20.6,18.8,13.0,10.6,9.0,75,65,56,30.60,30.46,9,1,15,0.00
2013-12-9,31.6,22.1,17.4,31.0,19.2,11.0,98,89,64,30.55,29.90,13,1,18,0.00
2013-12-10,30.3,26.2,18.2,29.0,21.5,9.0,97,82,61,29.94,29.78,17,9,31,0.00
2013-12-11,25.9,20.6,15.1,16.0,12.9,10.0,92,72,57,30.16,29.95,22,10,30,0.00
2013-12-12,14.9,11.5,6.7,11.0,1.9,-5.0,84,66,48,30.29,30.03,22,6,35,0.00
2013-12-13,20.2,12.1,2.7,13.0,4.3,-7.0,89,71,52,30.42,29.95,23,10,31,0.00
2013-12-14,11.0,4.8,-1.8,5.0,-3.4,-10.0,89,70,50,30.65,30.36,10,2,16,0.00
2013-12-15,24.5,16.4,5.9,23.0,14.2,3.0,95,91,83,30.30,29.53,19,6,34,0.00
2013-12-16,21.2,15.1,2.1,17.0,6.0,-5.0,87,69,45,30.23,29.71,29,12,42,0.00
2013-12-17,12.0,5.6,-0.7,10.0,-0.1,-8.0,91,77,60,30.30,30.09,13,2,16,0.00
2013-12-18,25.7,20.4,11.9,20.0,16.0,10.0,92,83,67,30.07,29.94,21,5,30,0.00
2013-12-19,35.5,29.7,24.0,29.0,23.0,20.0,90,77,65,30.11,29.96,21,10,28,0.00
2013-12-20,42.5,37.5,33.9,38.0,31.2,28.0,87,78,70,30.14,29.93,12,3,18,0.06
2013-12-21,52.6,44.9,37.0,50.0,41.5,33.0,98,88,77,29.95,29.86,18,3,23,0.07
2013-12-22,47.7,30.5,25.9,47.0,29.9,25.0,98,97,95,30.09,29.81,7,0,15,0.11
2013-12-23,37.2,30.1,25.6,37.0,29.6,25.0,99,98,97,30.14,30.02,6,0,12,0.03
2013-12-24,30.0,22.2,9.6,30.0,17.5,5.0,98,82,62,30.22,30.08,10,2,17,0.00
2013-12-25,15.6,9.0,0.8,5.0,0.9,-5.0,83,70,60,30.59,30.23,16,2,30,0.00
2013-12-26,23.3,18.6,12.7,22.0,14.8,2.0,96,85,60,30.55,30.15,15,3,22,0.00
2013-12-27,28.1,24.1,21.5,21.0,19.4,18.0,91,82,66,30.25,30.19,20,10,25,0.00
2013-12-28,36.8,31.6,24.5,32.0,25.9,19.0,84,79,74,30.21,29.99,21,11,37,0.04
2013-12-29,39.1,34.2,29.5,32.0,30.2,29.0,98,85,74,30.04,29.58,12,1,19,0.03
2013-12-30,34.3,23.0,3.3,34.0,19.1,-5.0,98,85,69,30.17,29.57,18,8,32,0.02
2013-12-31,14.5,7.2,0.5,10.0,-2.1,-12.0,86,66,53,30.19,30.07,15,3,18,0.00
2014-1-1,17.1,12.3,8.7,9.0,5.4,3.0,86,74,59,30.43,30.19,22,9,31,0.00
2014-1-2,9.0,1.3,-6.6,5.0,-2.3,-10.0,89,85,71,30.42,30.00,15,2,18,0.00